Location: Melizzano
(41.1500°N, 14.5000°E)
Time: 07:10:05
(UTC+00:00)

Cosmos 1745 Rocket - Pass Details

Date: 11 May 2021
Orbit: 952 x 999 km, 83.0° (Epoch: 20 June)

Event Time Altitude Azimuth Distance (km) Brightness Sun altitude
Rises 19:15:38 0° 352° (N) 3,667 7.7 -11.5°
Reaches altitude 10° 19:18:09 10° 352° (N) 2,710 7.0 -11.9°
Maximum altitude 19:24:22 87° 265° (W) 964 4.0 -12.8°
Drops below altitude 10° 19:30:29 10° 176° (S) 2,671 5.9 -13.7°
Enters shadow 19:31:20 - 176° (S) 2,995 6.1 -13.8°
